Location: Poughquag
(41.6090°N, 73.6820°W)
Time: 01:14:25
(UTC-04:00)

Vanguard 2 Rocket - Pass Details

Date: 29 May 2020
Orbit: 556 x 3324 km, 32.9° (Epoch: 06 July)

Event Time Altitude Azimuth Distance (km) Brightness Sun altitude
Rises 15:25:33 0° 223° (SW) 3,711 10.5 52.3°
Reaches altitude 10° 15:27:58 10° 213° (SSW) 3,033 10.2 51.9°
Maximum altitude 15:34:53 36° 150° (SSE) 2,363 9.3 50.6°
Drops below altitude 10° 15:46:12 10° 91° (E) 4,996 10.4 48.6°
Sets 15:51:29 0° 85° (E) 6,446 10.8 47.7°
